Regional Weather Roundup
Issued by NWS San Diego, CA

Home | Current Version | Previous Version | Text Only | Print | Product List | Glossary On
Versions: 1 2 3 4 5 6 7 8 9 10 11 12 13 14 15 16 17 18 19 20 21 22 23 24 25 26 27 28 29 30 31 32 33 34 35 36 37 38 39 40 41 42 43 44 45 46 47 48 49 50
000
ASUS46 KSGX 061311
RWRSGX
SAN DIEGO HOURLY WEATHER ROUNDUP
NATIONAL WEATHER SERVICE SAN DIEGO CA
500 AM PST FRI MAR 06 2015

NOTE: "FAIR" INDICATES FEW OR NO CLOUDS BELOW 12,000 FEET WITH NO
SIGNIFICANT WEATHER AND/OR OBSTRUCTIONS TO VISIBILITY.

CAZ042-043-060-061-PZZ750-775-061400-

GREATER SAN DIEGO AREA

CITY           SKY/WX    TMP DP  RH WIND       PRES   REMARKS
LINDBERGH FLD  CLEAR     52  31  44 CALM      30.12S
NATIONAL CITY    N/A     47  35  63 CALM      30.11S
CHULA VISTA      N/A     47  35  62 CALM      30.04S
IMPERIAL BEACH CLEAR     49  35  58 E12       30.11S
BROWN FIELD    CLEAR     44  31  60 SE9       30.11S
MIRAMAR MCAS   CLEAR     47  30  51 E7        30.10S
MONTGOMERY FLD CLEAR     45  33  63 SE6       30.11S

$$

NORTH SAN DIEGO COUNTY

CITY           SKY/WX    TMP DP  RH WIND       PRES   REMARKS
CAMP PENDLETON CLEAR     34  29  82 NW3       30.12S
OCEANSIDE AP   CLEAR     37  32  82 CALM      30.11S
OCEANSIDE HBR    N/A     47  34  61 E9        30.14S
VISTA            N/A     44  33  64 CALM      30.10F
CARLSBAD       CLEAR     49  32  52 E3        30.10S
DEL MAR          N/A     49  34  55 CALM      30.13S
LA JOLLA SCRIP   N/A     56  34  42 CALM      30.09R
FALLBROOK        N/A     59  20  22 NE3       30.13R
ESCONDIDO        N/A     44  33  65 CALM      30.14S
SAN MARCOS       N/A    N/A N/A N/A CALM      30.09S
POWAY            N/A     40  33  76 CALM      30.14S

$$

EAST SAN DIEGO COUNTY

CITY           SKY/WX    TMP DP  RH WIND       PRES   REMARKS
RAMONA         CLEAR     32  26  78 CALM      30.12S
SANTEE LAKES     N/A     40  33  77 CALM      30.14S
LA MESA          N/A     49  28  44 E3        30.06S
JAMUL            N/A     43  27  54 CALM      30.11S
DESCANSO N       N/A     56  10  16 E13       29.99F
MT. LAGUNA OBS   N/A     43   6  21 NE12      29.77S
CAMPO            N/A     56  10  16 NE22G31   30.07F

$$

ORANGE COUNTY AND THE LOS ANGELES BASIN

CITY           SKY/WX    TMP DP  RH WIND       PRES   REMARKS
JOHN WAYNE AP  CLEAR     51  33  50 S3        30.12R
LAKE FOREST FR   N/A     64  11  12 NE10      30.00S
SANTA ANA        N/A     45  34  65 CALM      30.07S
HUNTINGTON BCH   N/A     48  35  60 S2        30.14R
LOS ALAMITOS   FAIR      46  33  61 NW5       30.12R
FULLERTON      CLEAR     47  30  51 CALM      30.12R
LONG BEACH     CLEAR     52  28  39 W6        30.12S
L.A. AP        CLEAR     52  26  36 CALM      30.13S
L.A. DOWNTOWN  CLEAR     50  27  40 CALM      30.12F

$$

THE INLAND EMPIRE

CITY           SKY/WX    TMP DP  RH WIND       PRES   REMARKS
CORONA         CLEAR     50  20  30 SE7       30.15R
CHINO          CLEAR     41  32  70 N3        30.15S
ONTARIO        CLEAR     48  23  37 VRB3      30.14R
RIVERSIDE AP   CLEAR     48  25  40 E6        30.15R
RIV CYN CREST    N/A     55  31  39 SE3         N/A
MORENO VALLEY    N/A     56  23  28 S2        29.37R
MARCH ARB      CLEAR     43  20  39 CALM      30.15S
HORSETHIEF CYN   N/A     57  16  20 SW10      30.14S
PERRIS           N/A     48  26  41 CALM        N/A
MENIFEE          N/A     38  31  75 CALM      30.25S
HEMET EAST       N/A     50   4  15 CALM      30.15S
FRENCH VALLEY  FAIR      37  28  70 CALM      30.16R
TEMECULA         N/A     41  33  74 CALM      30.12S

$$

SAN BERNARDINO AND RIVERSIDE COUNTY MOUNTAINS

CITY           SKY/WX    TMP DP  RH WIND       PRES   REMARKS
BIG BEAR AP    CLEAR     18   9  68 CALM      30.33S
ANGELUS OAKS     N/A     39   7  26 CALM      30.18S
PINE COVE        N/A     43  -4  13 NW1       30.19R

$$

SOUTHERN DESERT INCLUDING THE COACHELLA VALLEY

CITY           SKY/WX    TMP DP  RH WIND       PRES   REMARKS
PALM SPRINGS   CLEAR     57  22  25 W7        30.18S
THOUSAND PALMS   N/A     53  20  27 W3        30.15R
PALM DESERT      N/A     47  34  59 CALM      27.14F
THERMAL        CLEAR     52  24  33 N7        30.13S
BLYTHE         CLEAR     48  36  63 CALM      30.16S
IMPERIAL AP    CLEAR     45  33  63 W3        30.11S
EL CENTRO NAS  CLEAR     47  30  51 W9        30.11S
YUMA AZ        CLEAR     60  25  26 N12       30.09S

$$

UPPER DESERT

CITY           SKY/WX    TMP DP  RH WIND       PRES   REMARKS
VICTORVILLE AP   N/A     34  16  47 S6        30.28S WCI  29
HESPERIA         N/A     35  19  51 W1        30.44S
APPLE VALLEY     N/A     28  19  68 CALM      30.34R
PALMDALE       CLEAR     31  22  69 S7        30.29R WCI  24
LANCASTER      CLEAR     27  20  75 W3        30.29S
EDWARDS AFB    CLEAR     29  20  68 SW2       30.27S
DAGGETT        CLEAR     43  18  36 W13       30.27R
29 PALMS N     CLEAR     42  22  44 NW6       30.31S
NEEDLES        CLEAR     54  27  35 NW9       30.22R

$$

REGIONAL REPORTS

CITY           SKY/WX    TMP DP  RH WIND       PRES   REMARKS
SANTA BARBARA  CLEAR     42  34  73 NE3       30.15R
SANDBERG       CLEAR     47  15  27 NE10      30.28S
MT. WILSON       N/A     43  -9  11 MISG        N/A
LAS VEGAS NV   CLEAR     45  30  55 S9        30.26R
PHOENIX AZ     CLEAR     54  24  31 E7        30.14S
TIJUANA        CLEAR     46  32  57 E3        30.14S
ENSENADA NW      N/A     63  32  31 CALM      30.07S

$$

OFFSHORE ISLANDS

CITY           SKY/WX    TMP DP  RH WIND       PRES   REMARKS
CATALINA ARPT  CLEAR     59  14  17 NE10      30.16R
SAN NICOLAS IS CLEAR    N/A N/A N/A NW14      30.14R

$$

MARINE AND OFFSHORE BUOY REPORTS

STATION/POSITION SKY/WX   TEMP    WIND        PRES    SWELL
                          AIR SEA DIR/SP/G            HT/PER/DIR
                          (F)     (DEG/KT/KT) (MB)    (FT/S/D)
TANNER BANKS               61 61  330/ 14/ 16 1019.9R   3/280/15
S CLEMENTE BASIN           61 62  340/ 10/ 12 1019.2S   3/180/15
SAN NICOLAS IS.               60                N/A     3/230/13
SO. S. ROSA ISLA           59 59  320/ 10/ 12 1020.4R   3/15
W. S. BARBARA CH           59 59  320/  6/ 10 1020.5S   3/240/16
S. MONICA BASIN            62 61  340/ 10/ 12 1020.3R   2/180/15
S PEDRO CHANNEL               61                N/A     2/160/14
DANA POINT                    61                N/A     3/200/14
CMP PENDLETON NS              62                N/A     2/220/14
OCEANSIDE OFFSHR              61                N/A     3/190/14
TORREY PINES OTR              62                N/A     2/210/13
LA JOLLA 1                 57 63  100/  4/  6 1019.6F
MISSION BAY BUOY              62                N/A     2/200/14
SAN DIEGO BAY                 64              1020.1F
POINT LOMA SOUTH              63                N/A     3/200/14

$$



USA.gov is the U.S. government's official web portal to all federal, state and local government web resources and services.